Tracking 20942 objects as of 15-Jul-2020
HD Live streaming from Space Station
objects crossing your sky now

DMSP 5D-2 F11 DEB

Track DMSP 5D-2 F11 DEB now!
10-day predictions


NORAD ID: 28312
Int'l Code: 1991-082Z
Perigee: 821.6 km
Apogee: 836.1 km
Inclination: 98.8 °
Period: 101.3 minutes
Semi major axis: 7199 km
RCS: 0.0099 m2 (small)
Launch date: November 28, 1991
Source: United States (US)
Launch site: AIR FORCE WESTERN TEST RANGE (AFWTR)

Note: This is SATELLITE DEBRIS
aabbcc
Your satellite tracking list
Your tracking list is empty




NASA's NSSDC Master Catalog

Two Line Element Set (TLE):
1 28312U 91082Z   20196.80919626 +.00000137 +00000-0 +83626-4 0  9995
2 28312 098.8229 219.4195 0010074 247.4391 112.5720 14.21073601839574
Source of the keplerian elements: AFSPC